DW8780 Weather Reports


Display with metric or nautical units.
time (UTC)temp
F
wind
direction
speed
MPH
gust
MPH
rain 1hr
in
rain 24hr
in
rain mn
in
humidity
%
barometer
mb
20260504023503 48 6 1.0 2.0 0.00 0.00 0.00 61 1016.8
20260504022504 48 4 1.0 3.0 0.00 0.00 0.00 59 1016.7
20260504022002 48 4 1.0 3.0 0.00 0.00 0.00 60 1016.7
20260504021502 48 11 1.0 4.0 0.00 0.00 0.00 59 1016.8
20260504021003 48 6 1.0 4.0 0.00 0.00 0.00 60 1016.7
20260504020503 48 1 1.0 3.0 0.00 0.00 0.00 60 1016.8
20260504015003 49 6 1.0 3.0 0.00 0.00 0.00 60 1016.6
20260504014502 49 13 1.0 2.0 0.00 0.00 0.00 59 1016.6
20260504014003 49 24 1.0 2.0 0.00 0.00 0.00 58 1016.6
20260504013502 50 6 1.0 3.0 0.00 0.00 0.00 59 1016.5
20260504013003 50 4 1.0 3.0 0.00 0.00 0.00 57 1016.5
20260504012003 50 4 0.0 2.0 0.00 0.00 0.00 55 1016.3
20260504011503 50 4 1.0 2.0 0.00 0.00 0.00 55 1016.3
20260504011003 51 10 1.0 2.0 0.00 0.00 0.00 54 1016.3
20260504010502 51 11 1.0 3.0 0.00 0.00 0.00 53 1016.3
20260504004503 52 6 0.0 2.0 0.00 0.00 0.00 52 1016.0
20260504003003 53 298 0.0 2.0 0.00 0.00 0.00 48 1015.9
20260504002502 54 318 0.0 2.0 0.00 0.00 0.00 47 1015.8
20260504002003 55 342 0.0 2.0 0.00 0.00 0.00 46 1015.7
20260504001503 55 350 0.0 2.0 0.00 0.00 0.00 47 1015.6
20260504001003 56 352 0.0 2.0 0.00 0.00 0.00 45 1015.5
20260504000504 56 337 0.0 2.0 0.00 0.00 0.00 43 1015.4
20260504000003 56 299 0.0 2.0 0.00 0.00 0.00 42 1015.4
20260503235503 57 290 0.0 2.0 0.00 0.00 0.00 41 1015.4
20260503235002 57 289 0.0 2.0 0.00 0.00 0.00 42 1015.3
20260503234504 58 297 0.0 2.0 0.00 0.00 0.00 39 1015.2
20260503234003 58 306 1.0 4.0 0.00 0.00 0.00 39 1015.3
20260503233502 58 309 1.0 4.0 0.00 0.00 0.00 38 1015.3
20260503233002 59 296 1.0 3.0 0.00 0.00 0.00 37 1015.3
20260503232503 59 289 1.0 4.0 0.00 0.00 0.00 36 1015.3
20260503232003 59 303 2.0 7.0 0.00 0.00 0.00 35 1015.3
20260503231502 59 312 2.0 7.0 0.00 0.00 0.00 36 1015.3
20260503231004 60 303 2.0 7.0 0.00 0.00 0.00 36 1015.3
20260503230503 60 306 3.0 9.0 0.00 0.00 0.00 35 1015.3
20260503230002 60 308 3.0 11.0 0.00 0.00 0.00 34 1015.1
20260503225503 60 312 3.0 11.0 0.00 0.00 0.00 34 1015.1
20260503224503 60 318 4.0 10.0 0.00 0.00 0.00 35 1015.1
20260503224003 60 318 4.0 12.0 0.00 0.00 0.00 34 1015.1
20260503223003 61 305 3.0 9.0 0.00 0.00 0.00 36 1015.1
20260503222503 61 303 3.0 10.0 0.00 0.00 0.00 35 1015.1
20260503222002 61 305 4.0 10.0 0.00 0.00 0.00 33 1015.2
20260503221503 61 307 4.0 8.0 0.00 0.00 0.00 34 1015.2
20260503221002 61 316 4.0 8.0 0.00 0.00 0.00 33 1015.1
20260503220503 61 312 4.0 9.0 0.00 0.00 0.00 34 1015.1
20260503220003 61 313 4.0 9.0 0.00 0.00 0.00 33 1015.2
20260503215503 61 325 4.0 10.0 0.00 0.00 0.00 34 1015.2
20260503215003 61 329 4.0 15.0 0.00 0.00 0.00 35 1015.2
20260503214502 61 315 4.0 15.0 0.00 0.00 0.00 34 1015.1
20260503213502 61 316 4.0 8.0 0.00 0.00 0.00 35 1015.1
20260503213003 61 320 4.0 12.0 0.00 0.00 0.00 35 1015.2
20260503212503 60 322 5.0 12.0 0.00 0.00 0.00 35 1015.1
20260503212003 61 326 5.0 23.0 0.00 0.00 0.00 34 1015.2
20260503211503 61 332 6.0 23.0 0.00 0.00 0.00 33 1015.1
20260503211002 61 330 5.0 12.0 0.00 0.00 0.00 33 1015.1
20260503210503 61 320 4.0 12.0 0.00 0.00 0.00 34 1015.1
20260503210003 61 329 5.0 13.0 0.00 0.00 0.00 33 1015.1
20260503205504 61 328 5.0 13.0 0.00 0.00 0.00 33 1015.1
20260503205002 61 329 5.0 12.0 0.00 0.00 0.00 33 1015.1
20260503204503 61 334 4.0 12.0 0.00 0.00 0.00 34 1015.0
20260503204003 60 331 4.0 11.0 0.00 0.00 0.00 35 1014.9
20260503203502 60 327 4.0 11.0 0.00 0.00 0.00 33 1015.1
20260503203003 60 322 4.0 10.0 0.00 0.00 0.00 36 1015.0
20260503202503 60 324 5.0 21.0 0.00 0.00 0.00 35 1015.1
20260503202002 60 330 5.0 21.0 0.00 0.00 0.00 33 1015.2
20260503201504 60 344 6.0 24.0 0.00 0.00 0.00 34 1015.3
20260503201002 60 344 6.0 24.0 0.00 0.00 0.00 33 1015.4
20260503200503 60 332 5.0 13.0 0.00 0.00 0.00 33 1015.5
20260503195503 60 327 4.0 11.0 0.00 0.00 0.00 33 1015.5
20260503194503 60 347 5.0 18.0 0.00 0.00 0.00 35 1015.6
20260503194006 60 343 6.0 19.0 0.00 0.00 0.00 34 1015.5
20260503193502 60 336 5.0 19.0 0.00 0.00 0.00 33 1015.6
20260503193003 60 331 4.0 16.0 0.00 0.00 0.00 35 1015.6
20260503192502 59 331 4.0 11.0 0.00 0.00 0.00 34 1015.7
20260503192003 59 328 4.0 11.0 0.00 0.00 0.00 35 1015.6
20260503191503 58 329 4.0 11.0 0.00 0.00 0.00 36 1015.6
20260503190504 59 332 4.0 15.0 0.00 0.00 0.00 33 1015.8
20260503185503 58 330 4.0 12.0 0.00 0.00 0.00 35 1015.9
20260503184503 58 335 5.0 14.0 0.00 0.00 0.00 34 1016.1
20260503184003 58 322 5.0 11.0 0.00 0.00 0.00 35 1016.1
20260503183503 58 334 5.0 14.0 0.00 0.00 0.00 32 1016.1
20260503183002 59 339 4.0 14.0 0.00 0.00 0.00 33 1016.1
20260503182503 58 323 3.0 9.0 0.00 0.00 0.00 35 1016.0
20260503181004 58 353 8.0 24.0 0.00 0.00 0.00 33 1016.2
20260503180503 58 338 6.0 17.0 0.00 0.00 0.00 33 1016.1
20260503180003 57 320 5.0 17.0 0.00 0.00 0.00 36 1016.3
20260503175502 57 317 5.0 17.0 0.00 0.00 0.00 33 1016.3
20260503175003 57 324 5.0 13.0 0.00 0.00 0.00 35 1016.4
20260503174503 57 329 5.0 13.0 0.00 0.00 0.00 35 1016.4
20260503174003 56 327 6.0 16.0 0.00 0.00 0.00 35 1016.3
20260503173503 57 326 5.0 16.0 0.00 0.00 0.00 35 1016.4
20260503173003 58 346 7.0 18.0 0.00 0.00 0.00 36 1016.4
20260503172002 57 342 7.0 16.0 0.00 0.00 0.00 35 1016.4
20260503171502 57 339 7.0 18.0 0.00 0.00 0.00 35 1016.4
20260503151003 55 321 4.0 12.0 0.00 0.00 0.00 42 1016.6
20260503130503 52 335 4.0 16.0 0.00 0.00 0.00 55 1016.4
20260503110503 45 311 3.0 9.0 0.00 0.00 0.00 69 1015.4
20260503081503 44 323 1.0 5.0 0.00 0.00 0.00 70 1013.2
20260503081003 44 335 1.0 6.0 0.00 0.00 0.00 70 1013.1
20260503072503 46 308 1.0 3.0 0.00 0.00 0.00 66 1013.0
20260503071503 46 305 1.0 4.0 0.00 0.00 0.00 65 1012.9
20260503071003 46 306 1.0 4.0 0.00 0.00 0.00 65 1012.9
20260503070503 46 324 1.0 4.0 0.00 0.00 0.00 64 1012.8
20260503055003 49 348 2.0 7.0 0.00 0.00 0.00 57 1012.7
20260503054003 50 350 2.0 8.0 0.00 0.00 0.00 57 1012.6
20260503053503 50 349 3.0 9.0 0.00 0.00 0.00 56 1012.7
20260503053003 50 352 4.0 10.0 0.00 0.00 0.00 55 1012.8
20260503052502 50 354 4.0 11.0 0.00 0.00 0.00 55 1012.9
20260503052003 50 358 4.0 11.0 0.00 0.00 0.00 55 1012.8
20260503051503 50 356 4.0 12.0 0.00 0.00 0.00 55 1012.8
20260503051003 51 355 4.0 12.0 0.00 0.00 0.00 56 1012.8
20260503045502 50 343 2.0 8.0 0.00 0.00 0.00 56 1012.8
20260503045003 51 341 2.0 7.0 0.00 0.00 0.00 57 1012.8
20260503044504 51 337 2.0 7.0 0.00 0.00 0.00 56 1012.9
20260503044003 51 342 1.0 5.0 0.00 0.00 0.00 56 1013.0
20260503043503 51 339 1.0 5.0 0.00 0.00 0.00 56 1012.9
20260503043003 51 323 1.0 5.0 0.00 0.00 0.00 56 1012.9
20260503042503 51 338 1.0 6.0 0.00 0.00 0.00 54 1012.9
20260503042003 52 355 2.0 7.0 0.00 0.00 0.00 54 1012.8
20260503041502 52 357 2.0 7.0 0.00 0.00 0.00 54 1012.8
20260503040502 52 359 3.0 9.0 0.00 0.00 0.00 54 1012.8
20260503040004 52 357 2.0 9.0 0.00 0.00 0.00 53 1012.9
20260503035503 52 351 1.0 4.0 0.00 0.00 0.00 55 1012.9
20260503035003 52 354 1.0 6.0 0.00 0.00 0.00 54 1013.0
20260503034503 52 359 2.0 6.0 0.00 0.00 0.00 54 1012.9
20260503034003 52 1 2.0 5.0 0.00 0.00 0.00 53 1012.7
20260503033503 52 359 2.0 5.0 0.00 0.00 0.00 54 1012.8
20260503033003 52 1 2.0 9.0 0.00 0.00 0.00 53 1012.9
20260503032503 52 1 3.0 9.0 0.00 0.00 0.00 52 1013.0
20260503032003 53 359 3.0 8.0 0.00 0.00 0.00 52 1012.8
20260503031503 53 354 2.0 6.0 0.00 0.00 0.00 52 1012.8
20260503031003 53 358 3.0 9.0 0.00 0.00 0.00 52 1012.9
20260503030503 53 2 3.0 9.0 0.00 0.00 0.00 51 1012.7
20260503030005 53 1 3.0 8.0 0.00 0.00 0.00 51 1012.8
20260503025503 53 359 3.0 8.0 0.00 0.00 0.00 51 1013.0
20260503025003 53 359 3.0 9.0 0.00 0.00 0.00 51 1013.0
20260503024503 53 359 3.0 9.0 0.00 0.00 0.00 51 1013.1